STARLINK-11318, 61252

Orbit data source: Space-Track

STARLINK-11318, 61252 is a payload satellite owned by SpaceX/Seattle (US) in LEO that was launched on Wed, 25 Sep 2024 UTC via an FALCON 9 launch vehicle from the Air Force Western Test Range (AFWTR). Payload-class satellites include a variety of spacecraft equipped with specific instruments for various scientific and technological missions. These include communications satellites like Starlink; space stations such as the ISS; scientific satellites like the Hubble; Earth observation satellites from companies like Planet Labs, Umbra, and HawkEye 360; GPS; miniature CubeSats for education and research; and military/defense satellites.

Loading next visibility...
Identifier
61252, 2024-175K
Orbit
LEO
Last TLE update
14 hours ago
Origin
Manufacturer
SpaceX/Seattle
Mission
Operational Commercial Communications
Bus & Motor
STARLINK V2M, Unknown motor
Mass
730 kg wet, ~700 kg dry
Launch date (UTC)
2024-09-25 (9 months ago)
Launch vehicle
FALCON 9
Launch site
Air Force Western Test Range (AFWTR)
Object type
Payload
Rocket body
Debris
Shape & HBR
Box + 2 Pan, 29 m
Radar Cross Section
36.964 m², Large (>1 m²)

Expand to show TLE details & history

TLE from 14 hours ago
0 STARLINK-11318
1 61252U 24175K   25181.81745944 -.00000354  00000-0  19356-5 0  9996
2 61252  53.1594 218.1557 0001051  87.9491 272.1648 15.69704904 44686
Epoch: 2025-06-30T19:37Z
TLE epoch observation values (Epoch: 2025-06-30T19:37:08.495Z)
Latitude
0.00003°
Longitude
4.74851°
Altitude
360.63 km
Speed
7.694 km/s
True Right ascension
14h 32m 37s
True Declination
0° 00' 00"
Sunlit
Object was in full shadow at epoch
Visualization orbit readout
Latitude
11.06795°
Longitude
10.29036°
Altitude
359.72 km
Speed
7.696 km/s
Apparent Right ascension
12h 31m 59s
Apparent Declination
-18° 22' 10"
Sunlit
Object is in full shadow
Visualization observer readout
Local Sidereal Time
21:04:05
Azimuth
280.118° WNW
Elevation
-40.586°
Doppler factor
1
Orbital elements
Apogee altitude
360.71 km
Perigee altitude
359.294 km
Semi-major axis
6,738.139 km
Eccentricity
0.00011
Inclination
53.1594°
RAAN
218.1557°
Arg. of periapsis
87.9491°
True anomaly
Unknown
Mean anomaly
272.1648°
Eccentric anomaly
Unknown
Mean motion
3.92404 °/min
Orbital period
91.74 mins
BSTAR
0.0000019356
Loading maneuver chart data...
Loading SW <> Apogee altitude chart data...
Loading historical data...
Loading historical data...
Loading historical data...
Loading historical data...
Loading historical data...
Loading historical data...
Loading historical data...

STARLINK-11318 Visibility forecast

Observer location: undefined°, undefined°

Span
Click to sort rows by Start time (UTC) header in descending order
Start Az.
Max El. time (UTC)
Max El. Az.
Max El.
End time (UTC)
End Az.
4 mins2025-07-01 11:22:48.543Z337.037° NNW2025-07-01 11:24:48.543Z42.767° NE27.593°2025-07-01 11:26:48.543Z94.813° ESE
|